カタログに戻る

CZ-6A DEB

運用中SSO
NORAD 54623·DEBRIS·🇨🇳 China

打ち上げ Nov 11, 2022 から Taiyuan Satellite Launch Center

Loading…

次のパス (今後24時間)

TLE

最新Source: Space-Track

元期: Sep 13, 2026, 23:05 UTC

1 54623U 22151NZ  26256.96211022  .00000485  00000-0  28188-3 0  9992
2 54623  98.8467 260.5523 0044046  80.2374 280.3769 14.12800503196431

AllMySatでCZ-6A DEBをリアルタイム追跡

Download on the App Store